Location: Pelican Bay
(32.9210°N, 97.5184°W)
Time: 05:58:25
(UTC+00:00)

Daily predictions for brighter satellites

Satellite Brightness Start Highest point End
(mag) Time Altitude Azimuth Time Altitude Azimuth Time Altitude Azimuth
IRS-P3 4.2 00:28:52 10° SSE 00:34:06 62° ENE 00:39:20 10° N
Cosmos 1674 Rocket 3.5 00:33:31 10° S 00:37:51 73° E 00:42:14 10° N
Cosmos 2219 Rocket 2.4 00:32:21 10° NNW 00:37:56 81° WSW 00:43:30 10° SSE
BREEZE-M DEB (TANK) 4.1 00:35:08 10° NNW 00:38:27 30° NE 00:43:05 10° E
Cosmos 1315 Rocket 3.0 00:35:42 10° N 00:39:19 42° E 00:42:56 10° SSE
SAR-Lupe-1 4.2 00:36:49 10° SSE 00:40:15 51° ENE 00:43:44 10° N
SPOT 1/Viking Rocket 3.5 00:36:31 10° SSE 00:41:37 78° ENE 00:46:44 10° N
Tiangong -2.1 00:40:07 10° SW 00:43:16 73° SSE 00:46:23 10° ENE
Cosmos 2322 4.2 00:38:37 10° N 00:43:58 40° ENE 00:49:16 10° SE
Helios 1A Rocket 4.2 00:42:33 10° ENE 00:44:11 13° E 00:45:48 10° SE
Aureole 3 Rocket 4.1 00:43:52 10° NE 00:45:57 15° ENE 00:47:52 10° ESE
Cosmos 2227 Rocket 3.5 00:42:35 10° SE 00:46:27 19° E 00:50:20 10° NE
USA 234 3.3 00:40:11 10° SE 00:46:41 72° NE 00:53:13 10° NW
BlueWalker 3 1.6 00:45:19 10° NW 00:48:52 81° NE 00:52:24 10° SE
SAR-Lupe-4 3.6 00:52:49 10° SSE 00:56:21 86° WSW 00:59:56 10° NNW
Cosmos 2016 Rocket 4.1 00:51:20 10° N 00:57:36 84° W 01:03:55 10° S
CARTOSAT-1 4.0 00:53:48 10° SE 00:57:37 35° ENE 01:01:27 10° N
OAO 1 Rocket 4.5 00:53:40 10° W 00:58:55 71° N 01:03:14 15° E
DOUBLE STAR 4.4 00:59:13 10° N 01:00:58 62° W 01:02:30 10° S
Cosmos 2151 Rocket 3.5 01:00:02 10° N 01:04:32 85° E 01:09:01 10° S
Cosmos 1356 Rocket 3.2 01:00:49 10° N 01:04:45 78° E 01:08:44 10° S
Delta 2 Rocket 2.7 01:06:48 10° W 01:09:52 66° N 01:11:33 25° ENE
Cosmos 2233 Rocket 4.1 01:07:07 10° N 01:13:25 86° W 01:19:44 10° S
Atlas Centaur 2 2.8 01:06:08 10° WSW 01:13:54 70° S 01:18:41 20° E
Cosmos 2344 4.0 01:07:12 10° S 01:15:29 42° ESE 01:21:26 14° NE
Cosmos 1975 Rocket 3.8 01:11:59 10° SSE 01:15:48 30° E 01:19:28 11° NNE
CRYOSAT 2 4.4 01:14:24 10° NNE 01:19:11 56° E 01:23:57 10° S
YAOGAN 1 3.0 01:16:02 10° S 01:20:13 65° WSW 01:24:27 10° NNW
Cosmos 2221 Rocket 4.3 01:17:40 10° SSW 01:22:00 56° W 01:26:24 10° N
Cosmos 1455 Rocket 3.5 01:19:40 10° NNE 01:23:40 37° E 01:27:38 10° SSE
Cosmos 375 4.5 01:19:21 10° NNW 01:24:18 67° ENE 01:27:35 15° SE
Meteor 2-1 Rocket 4.3 01:19:37 10° N 01:25:29 89° W 01:31:24 10° S
YAOGAN 3 4.4 01:21:57 10° SSE 01:26:06 64° ENE 01:30:15 10° N
Cosmos 1570 Rocket 4.0 01:20:49 10° SSW 01:26:06 89° W 01:31:24 10° NNE
CZ-4C R/B 4.2 01:26:34 10° W 01:29:02 15° NW 01:31:47 10° N
Cosmos 2061 Rocket 4.3 01:23:45 10° N 01:30:05 72° W 01:36:19 10° S
Cosmos 2297 Rocket 2.7 01:25:28 10° SSW 01:31:02 60° WNW 01:36:37 10° NNE
Okean 2 Rocket 3.7 01:29:17 10° NNW 01:33:34 57° W 01:37:50 10° S
SL-24 R/B 4.5 01:30:46 10° SSE 01:34:52 68° ENE 01:39:23 10° N
Okean 1 Rocket 3.5 01:31:47 10° NNW 01:36:07 64° W 01:40:23 10° S
NOSS 0 Rocket 3.8 01:32:06 10° NNW 01:38:21 75° ENE 01:44:32 10° SSE
Cosmos 1125 Rocket 3.3 01:34:21 10° NNW 01:39:31 72° ENE 01:44:42 10° SSE
NOAA 6 4.2 01:35:12 10° S 01:40:19 76° WSW 01:45:29 10° NNW
Resurs 01 Rocket 1.5 01:38:46 10° SSE 01:43:08 86° W 01:47:32 10° NNW
Cosmos 2208 Rocket 3.9 01:38:29 10° SSW 01:43:40 87° WNW 01:48:57 10° NNE
Sich 1 Rocket 4.3 01:39:20 10° NNW 01:43:46 56° W 01:48:12 10° S
PSLV R/B 4.3 01:43:10 10° S 01:47:10 49° W 01:51:11 10° NNW
Radarsat Rocket 4.5 01:43:12 10° S 01:48:53 58° WSW 01:54:47 10° NNW
Cosmos 1464 Rocket 4.1 01:43:24 10° N 01:49:33 50° E 01:55:35 10° SSE
Cosmos 44 Rocket 3.9 01:47:43 10° SW 01:52:27 57° WNW 01:55:59 18° NNE
SJ-6B 4.0 01:56:25 27° NNW 01:56:25 27° NNW 01:58:07 10° NNW
GOES 2 Rocket 3.9 01:51:36 10° SW 01:55:28 36° SSE 01:55:36 36° SSE
Meteor 1-27 4.1 01:50:31 10° N 01:56:20 81° E 02:02:09 10° S
SEDSat Delta rocket 3.0 01:57:07 10° W 02:00:56 58° SSW 02:00:56 58° SSW
ATLAS 5 CENTAUR R/B 3.7 01:56:55 10° NW 02:01:25 34° WSW 02:06:45 10° S
Cosmos 2263 Rocket 2.2 01:58:25 10° S 02:03:45 57° ESE 02:03:45 57° ESE
COSMOS 2428 3.8 01:58:44 10° NW 02:04:08 44° WSW 02:09:31 10° S
Cosmos 1980 3.5 02:01:35 10° NNW 02:07:16 79° ENE 02:08:37 53° SE
Cosmos 2237 Rocket 2.0 02:07:09 10° NNW 02:12:51 81° ENE 02:13:33 68° SE
BREEZE-M DEB (TANK) 4.1 02:14:01 10° NW 02:19:00 70° NE 02:22:02 45° ESE
Tiangong 0.8 02:17:45 10° WNW 02:18:42 16° WNW 02:18:42 16° WNW
Cosmos 2227 Rocket 3.1 02:24:40 10° SW 02:30:02 45° WNW 02:33:08 24° N
Gbstr 26 Del rocket 4.5 02:40:55 10° WSW 02:47:38 64° NW 02:48:13 61° NNW
Atlas Centaur 2 3.3 02:55:30 10° W 03:00:36 45° WSW 03:00:36 45° WSW
BREEZE M DEB (TANK) 4.4 02:56:21 10° SW 03:13:16 69° WNW 03:13:16 69° WNW
Cosmos 1697 Rocket 4.3 10:21:48 31° ENE 10:21:48 31° ENE 10:25:14 10° NE
Cosmos 2297 Rocket 3.8 10:27:48 27° NE 10:29:10 30° ENE 10:34:02 10° ESE
COSMOS 2455 4.3 10:29:38 28° SE 10:31:30 33° ESE 10:36:49 10° NE
BREEZE M DEB (TANK) 4.2 10:58:54 36° S 10:58:54 36° S 11:05:23 10° SSE
Aurora 2 Rocket 4.2 11:05:24 34° S 11:06:04 35° SSE 11:12:24 10° ESE
NOSS 3-1 (C) 3.3 11:17:01 37° S 11:18:30 55° ESE 11:23:17 10° NE
Aureole 3 3.8 11:22:41 10° N 11:28:00 77° E 11:32:18 10° S
Cosmos 2227 Rocket 3.5 11:23:01 10° N 11:28:17 38° ENE 11:33:30 10° SE
SL-08 R/B 4.5 11:26:25 10° SSW 11:32:41 60° W 11:39:03 10° N
NOAA 12 4.1 11:30:01 10° NNE 11:35:19 85° ESE 11:40:37 10° SSW
IRS-1D 3.5 11:34:02 10° NNE 11:39:14 85° ESE 11:44:18 10° SSW
CZ-4 R/B 4.2 11:35:00 10° NNE 11:39:57 67° ESE 11:44:51 10° S
Cosmos 1727 Rocket 4.2 11:36:21 10° NNW 11:42:08 44° W 11:47:58 10° SSW
Cosmos 1934 Rocket 3.8 11:38:03 10° SSW 11:44:02 64° W 11:50:08 10° N
Cosmos 1503 Rocket 4.0 11:39:08 10° SSW 11:44:16 80° ESE 11:49:28 10° NNE
Meteor 1-11 4.3 11:42:03 10° N 11:47:55 84° E 11:53:47 10° S
Intercosmos 25 Rocket 4.2 11:45:48 10° N 11:48:50 41° E 11:52:02 10° SSE
Cosmos 1980 Rocket 2.0 11:46:24 10° SSW 11:51:57 73° WNW 11:57:33 10° NNE
Cosmos 1378 Rocket 3.3 11:47:47 10° N 11:52:04 79° W 11:56:20 10° S
SL-23 DEB 3.3 11:54:48 42° NW 11:55:45 81° NE 11:59:28 10° SE
